| time (UTC) | temp C | wind direction | speed KPH | gust KPH | rain 1hr cm | rain 24hr cm | rain mn cm | humidity % | barometer mb |
| 20260508203047 | 11 | 276 | 8.0 | 24.1 | 0.00 | 0.00 | 0.00 | 61 | 1010.5 |
| 20260508201513 | 10 | 257 | 17.7 | 27.4 | 0.00 | 0.00 | 0.00 | 64 | 1010.7 |
| 20260508200012 | 10 | 247 | 19.3 | 32.2 | 0.00 | 0.00 | 0.00 | 65 | 1010.7 |
| 20260508194510 | 11 | 259 | 14.5 | 22.5 | 0.00 | 0.00 | 0.00 | 62 | 1010.7 |
| 20260508193008 | 10 | 270 | 17.7 | 33.8 | 0.00 | 0.00 | 0.00 | 62 | 1010.6 |
| 20260508191605 | 11 | 322 | 22.5 | 35.4 | 0.00 | 0.00 | 0.00 | 61 | 1010.5 |
| 20260508190010 | 11 | 295 | 19.3 | 30.6 | 0.00 | 0.00 | 0.00 | 60 | 1010.5 |
| 20260508184544 | 11 | 273 | 16.1 | 33.8 | 0.00 | 0.00 | 0.00 | 57 | 1010.4 |
| 20260508183035 | 12 | 301 | 19.3 | 32.2 | 0.00 | 0.00 | 0.00 | 55 | 1010.0 |
| 20260508181503 | 12 | 266 | 14.5 | 24.1 | 0.00 | 0.00 | 0.00 | 51 | 1009.9 |
| 20260508180002 | 13 | 243 | 6.4 | 22.5 | 0.00 | 0.00 | 0.00 | 52 | 1009.7 |
| 20260508174620 | 13 | 239 | 4.8 | 17.7 | 0.00 | 0.00 | 0.00 | 45 | 1009.5 |
| 20260508173101 | 13 | 292 | 3.2 | 25.7 | 0.00 | 0.00 | 0.00 | 48 | 1009.6 |
| 20260508171559 | 13 | 220 | 6.4 | 19.3 | 0.00 | 0.00 | 0.00 | 44 | 1009.7 |
| 20260508170100 | 12 | 226 | 1.6 | 17.7 | 0.00 | 0.00 | 0.00 | 46 | 1009.7 |
| 20260508164529 | 12 | 251 | 12.9 | 24.1 | 0.00 | 0.00 | 0.00 | 48 | 1010.0 |
| 20260508163036 | 12 | 286 | 1.6 | 22.5 | 0.00 | 0.00 | 0.00 | 47 | 1010.1 |
| 20260508161531 | 12 | 295 | 8.0 | 20.9 | 0.00 | 0.00 | 0.00 | 50 | 1010.2 |
| 20260508160023 | 12 | 206 | 9.7 | 25.7 | 0.00 | 0.00 | 0.00 | 50 | 1010.3 |
| 20260508154523 | 11 | 299 | 9.7 | 22.5 | 0.00 | 0.00 | 0.00 | 52 | 1010.3 |
| 20260508153023 | 11 | 310 | 12.9 | 24.1 | 0.00 | 0.00 | 0.00 | 55 | 1010.4 |
| 20260508151552 | 11 | 271 | 9.7 | 20.9 | 0.00 | 0.00 | 0.00 | 52 | 1010.5 |
| 20260508150054 | 11 | 247 | 3.2 | 19.3 | 0.00 | 0.00 | 0.00 | 51 | 1010.6 |
| 20260508144554 | 11 | 280 | 11.3 | 24.1 | 0.00 | 0.00 | 0.00 | 55 | 1010.6 |
| 20260508143053 | 11 | 265 | 6.4 | 19.3 | 0.00 | 0.00 | 0.00 | 52 | 1010.7 |
| 20260508141555 | 10 | 293 | 11.3 | 25.7 | 0.00 | 0.00 | 0.00 | 59 | 1010.8 |
| 20260508140045 | 10 | 290 | 9.7 | 22.5 | 0.00 | 0.00 | 0.00 | 53 | 1010.9 |
| 20260508134555 | 10 | 308 | 9.7 | 19.3 | 0.00 | 0.00 | 0.00 | 56 | 1010.9 |
| 20260508133042 | 10 | 259 | 12.9 | 27.4 | 0.00 | 0.00 | 0.00 | 54 | 1011.2 |
| 20260508131541 | 10 | 280 | 16.1 | 22.5 | 0.00 | 0.00 | 0.00 | 54 | 1011.2 |
| 20260508124511 | 9 | 272 | 12.9 | 22.5 | 0.00 | 0.00 | 0.00 | 53 | 1011.2 |
| 20260508123008 | 9 | 265 | 3.2 | 16.1 | 0.00 | 0.00 | 0.00 | 55 | 1011.1 |
| 20260508121506 | 8 | 295 | 8.0 | 19.3 | 0.00 | 0.00 | 0.00 | 56 | 1011.1 |
| 20260508120105 | 8 | 287 | 3.2 | 14.5 | 0.00 | 0.00 | 0.00 | 58 | 1011.1 |
| 20260508114504 | 7 | 297 | 1.6 | 12.9 | 0.00 | 0.00 | 0.00 | 63 | 1011.1 |
| 20260508113006 | 7 | 286 | 0.0 | 6.4 | 0.00 | 0.00 | 0.00 | 64 | 1011.1 |
| 20260508111534 | 5 | 288 | 0.0 | 6.4 | 0.00 | 0.00 | 0.00 | 76 | 1011.0 |
| 20260508110030 | 4 | 295 | 0.0 | 0.0 | 0.00 | 0.00 | 0.00 | 84 | 1010.9 |
| 20260508104526 | 3 | 295 | 0.0 | 0.0 | 0.00 | 0.00 | 0.00 | 85 | 1010.6 |
| 20260508103033 | 3 | 295 | 0.0 | 0.0 | 0.00 | 0.03 | 0.00 | 85 | 1010.5 |
| 20260508101522 | 3 | 295 | 0.0 | 0.0 | 0.00 | 0.03 | 0.00 | 84 | 1010.4 |
| 20260508100025 | 3 | 295 | 0.0 | 0.0 | 0.00 | 0.03 | 0.00 | 85 | 1010.2 |
| 20260508094517 | 3 | 295 | 0.0 | 0.0 | 0.00 | 0.03 | 0.00 | 84 | 1010.1 |
| 20260508093016 | 3 | 295 | 0.0 | 0.0 | 0.00 | 0.18 | 0.00 | 83 | 1010.0 |
| 20260508091515 | 3 | 295 | 0.0 | 0.0 | 0.00 | 0.18 | 0.00 | 82 | 1009.9 |
| 20260508090020 | 3 | 295 | 0.0 | 0.0 | 0.00 | 0.18 | 0.00 | 83 | 1009.9 |
| 20260508084508 | 3 | 295 | 0.0 | 0.0 | 0.00 | 0.18 | 0.00 | 83 | 1009.9 |
| 20260508083009 | 3 | 295 | 0.0 | 0.0 | 0.00 | 0.48 | 0.00 | 84 | 1009.6 |
| 20260508081517 | 2 | 295 | 0.0 | 0.0 | 0.00 | 0.48 | 0.00 | 84 | 1009.9 |
| 20260508080005 | 2 | 295 | 0.0 | 0.0 | 0.00 | 0.48 | 0.00 | 84 | 1009.8 |
| 20260508074503 | 3 | 295 | 0.0 | 0.0 | 0.00 | 0.48 | 0.00 | 82 | 1009.4 |
| 20260508073100 | 3 | 295 | 0.0 | 0.0 | 0.00 | 0.53 | 0.00 | 81 | 1009.2 |
| 20260508071558 | 3 | 295 | 0.0 | 0.0 | 0.00 | 0.53 | 0.00 | 81 | 1008.8 |
| 20260508070056 | 3 | 295 | 0.0 | 0.0 | 0.00 | 0.53 | 0.00 | 80 | 1008.7 |
| 20260508064555 | 3 | 295 | 0.0 | 0.0 | 0.00 | 0.53 | 0.00 | 77 | 1008.6 |
| 20260508063103 | 5 | 295 | 0.0 | 8.0 | 0.00 | 0.53 | 0.00 | 78 | 1008.4 |
| 20260508061554 | 3 | 266 | 0.0 | 0.0 | 0.00 | 0.53 | 0.00 | 78 | 1008.3 |
| 20260508060052 | 3 | 266 | 0.0 | 0.0 | 0.00 | 0.53 | 0.00 | 74 | 1008.1 |
| 20260508054645 | 3 | 266 | 0.0 | 0.0 | 0.00 | 0.53 | 0.00 | 75 | 1008.5 |
| 20260508053044 | 3 | 266 | 0.0 | 0.0 | 0.00 | 0.53 | 0.00 | 75 | 1008.5 |
| 20260508051542 | 4 | 266 | 0.0 | 0.0 | 0.00 | 0.53 | 0.00 | 76 | 1008.6 |
| 20260508050039 | 4 | 266 | 0.0 | 0.0 | 0.00 | 0.53 | 0.00 | 73 | 1008.8 |
| 20260508044537 | 5 | 266 | 0.0 | 0.0 | 0.00 | 0.53 | 0.00 | 70 | 1008.9 |
| 20260508043009 | 5 | 266 | 0.0 | 0.0 | 0.00 | 0.61 | 0.00 | 70 | 1009.0 |
| 20260508041504 | 5 | 266 | 0.0 | 0.0 | 0.00 | 0.61 | 0.00 | 69 | 1009.0 |
| 20260508040031 | 5 | 266 | 0.0 | 0.0 | 0.00 | 0.61 | 0.00 | 68 | 1009.0 |
| 20260508034529 | 6 | 266 | 0.0 | 0.0 | 0.00 | 0.61 | 0.00 | 67 | 1009.0 |
| 20260508033057 | 6 | 266 | 0.0 | 0.0 | 0.00 | 0.71 | 0.00 | 63 | 1008.9 |
| 20260508031556 | 7 | 266 | 0.0 | 0.0 | 0.00 | 0.71 | 0.00 | 62 | 1008.9 |
| 20260508030037 | 9 | 266 | 0.0 | 0.0 | 0.00 | 0.71 | 0.00 | 55 | 1008.9 |
| 20260508024545 | 10 | 266 | 0.0 | 0.0 | 0.00 | 0.71 | 0.00 | 51 | 1009.0 |
| 20260508023033 | 10 | 266 | 0.0 | 0.0 | 0.00 | 0.71 | 0.00 | 52 | 1008.9 |
| 20260508021633 | 11 | 263 | 0.0 | 6.4 | 0.00 | 0.71 | 0.00 | 47 | 1009.0 |
| 20260508020031 | 11 | 274 | 3.2 | 11.3 | 0.00 | 0.71 | 0.00 | 46 | 1009.0 |
| 20260508014537 | 11 | 255 | 0.0 | 6.4 | 0.00 | 0.71 | 0.00 | 51 | 1009.0 |
| 20260508013028 | 11 | 258 | 0.0 | 0.0 | 0.00 | 0.71 | 0.00 | 45 | 1008.9 |
| 20260508011625 | 11 | 276 | 0.0 | 6.4 | 0.00 | 0.71 | 0.00 | 46 | 1008.5 |
| 20260508010033 | 12 | 283 | 1.6 | 12.9 | 0.00 | 0.71 | 0.00 | 48 | 1008.3 |
| 20260508004523 | 12 | 272 | 0.0 | 8.0 | 0.00 | 0.71 | 0.00 | 45 | 1008.0 |
| 20260508003021 | 12 | 276 | 0.0 | 17.7 | 0.00 | 0.71 | 0.00 | 47 | 1007.8 |
| 20260508001620 | 12 | 320 | 12.9 | 25.7 | 0.00 | 0.71 | 0.00 | 45 | 1007.6 |
| 20260508000022 | 12 | 288 | 16.1 | 24.1 | 0.00 | 0.71 | 0.00 | 42 | 1007.6 |
| 20260507234519 | 13 | 297 | 19.3 | 27.4 | 0.00 | 0.71 | 0.00 | 44 | 1007.5 |
| 20260507231513 | 13 | 262 | 16.1 | 30.6 | 0.00 | 0.79 | 0.00 | 46 | 1007.2 |
| 20260507230009 | 13 | 272 | 17.7 | 27.4 | 0.00 | 0.79 | 0.00 | 44 | 1007.2 |
| 20260507224508 | 13 | 308 | 14.5 | 30.6 | 0.00 | 0.79 | 0.00 | 43 | 1007.0 |
| 20260507223006 | 13 | 303 | 20.9 | 30.6 | 0.00 | 0.84 | 0.00 | 43 | 1006.8 |
| 20260507221510 | 13 | 307 | 20.9 | 33.8 | 0.00 | 0.84 | 0.00 | 45 | 1006.9 |
| 20260507220059 | 14 | 290 | 12.9 | 27.4 | 0.00 | 0.84 | 0.00 | 46 | 1006.9 |
| 20260507214605 | 14 | 311 | 17.7 | 27.4 | 0.00 | 0.84 | 0.00 | 47 | 1006.7 |
| 20260507213057 | 14 | 303 | 11.3 | 27.4 | 0.00 | 0.97 | 0.84 | 42 | 1006.6 |
| 20260507211559 | 14 | 259 | 19.3 | 30.6 | 0.00 | 0.97 | 0.84 | 44 | 1006.4 |
| 20260507210059 | 14 | 317 | 16.1 | 27.4 | 0.00 | 0.97 | 0.84 | 45 | 1006.3 |
| 20260507204551 | 14 | 307 | 25.7 | 33.8 | 0.00 | 0.97 | 0.84 | 45 | 1006.1 |